Weather observations for the past three days for
Roswell International Air Center Airport
Metric (Imperial)
Date Time (mdt) Wind (kph) Vis. (km) Weather Sky Cond. Temperature (ºC) Relative Humidity Wind Chill (°C) Heat Index (°C) Pressure Precipitation (cm)
Air Dwpt 6 hour altimeter (cm) sea level (mb) 1 hr 3 hr 6 hr
Max. Min.
15 16:51 S 20 G 37 16.09 A Few Clouds FEW110 37.8 8.3 16% 36 76.15 1007.5
15 15:51 S 20 G 33 16.09 Fair CLR 38.3 8.9 17% 36 76.2 1007.9
15 14:51 Vrbl 7 16.09 Fair CLR 37.8 10 18% 36 76.25 1009.0
15 13:51 SE 13 G 28 16.09 Fair CLR 37.2 10 19% 35 76.33 1009.8
15 12:51 Calm 16.09 Fair CLR 36.7 10.6 20% 35 76.38 1010.5
15 11:51 S 13 16.09 Fair CLR 35 11.7 35 20.6 24% 34 76.43 1011.1
15 10:51 SW 9 16.09 Fair CLR 33.3 11.7 27% 32 76.48 1011.7
15 09:51 S 11 16.09 Fair CLR 31.1 11.1 29% 30 76.48 1012.1
15 08:51 S 9 16.09 Fair CLR 28.3 11.7 36% 28 76.53 1012.7
15 07:51 S 13 16.09 Fair CLR 25.6 11.7 42% 26 76.5 1012.6
15 06:51 SW 13 16.09 Fair CLR 22.8 8.9 41% 76.48 1012.2
15 05:51 S 9 16.09 Fair CLR 21.1 10 27.2 21.1 49% 76.43 1011.8
15 04:51 Calm 16.09 Fair CLR 23.3 11.1 46% 76.43 1011.5
15 02:51 S 6 16.09 Fair CLR 23.3 8.3 38% 76.45 1011.8
15 01:51 Calm 16.09 Fair CLR 26.1 8.9 34% 26 76.45 1011.6
15 00:51 Calm 16.09 Fair CLR 26.1 8.9 34% 26 76.48 1011.9
14 23:51 SW 7 16.09 Fair CLR 27.2 8.9 36.1 27.2 32% 27 76.48 1012.1
14 22:51 SW 7 16.09 Fair CLR 28.3 8.9 30% 27 76.45 1011.9
14 21:51 SW 6 16.09 Fair CLR 29.4 8.3 27% 28 76.45 1011.8
14 20:51 S 7 16.09 Fair CLR 31.1 8.3 24% 29 76.4 1011.2
14 19:51 S 9 16.09 Fair CLR 33.9 8.3 21% 32 76.38 1010.9
14 18:51 Vrbl 11 16.09 Fair CLR 35.6 8.3 19% 34 76.38 1010.7
14 17:51 Vrbl 6 16.09 Fair CLR 35.6 8.3 37.2 32.8 19% 34 76.38 1011.0
14 16:51 S 15 G 30 16.09 Fair CLR 36.1 8.9 19% 34 76.43 1011.3
14 15:51 S 20 16.09 Fair CLR 36.1 8.3 18% 34 76.5 1012.2
14 14:51 Vrbl 6 16.09 Fair CLR 35 9.4 21% 33 76.56 1013.2
14 13:51 SE 22 G 33 16.09 Fair CLR 35.6 8.9 19% 34 76.58 1013.3
14 12:51 E 11 16.09 Fair CLR 34.4 10.6 23% 33 76.63 1014.1
14 11:51 Calm 16.09 Fair CLR 32.8 13.9 33.3 22.2 32% 32 76.68 1014.8
14 10:51 S 13 16.09 Fair CLR 31.1 16.7 42% 31 76.71 1015.3
14 09:51 S 13 16.09 Fair CLR 28.3 17.2 51% 29 76.73 1015.6
14 08:51 S 19 16.09 Fair CLR 26.7 17.8 58% 28 76.73 1015.8
14 07:51 S 24 16.09 Fair CLR 24.4 17.8 67% 25 76.73 1015.8
14 06:51 S 17 16.09 Fair CLR 22.8 17.2 71% 76.68 1015.2
14 05:51 S 13 16.09 Fair CLR 22.8 16.7 26.7 22.8 69% 76.68 1014.8
14 04:51 S 13 16.09 Fair CLR 23.3 16.7 67% 76.66 1014.6
14 03:51 S 19 16.09 Fair CLR 24.4 15.6 58% 26 76.63 1014.1
14 02:51 S 11 16.09 Fair CLR 24.4 14.4 54% 26 76.63 1014.3
14 01:51 S 13 16.09 Fair CLR 25 12.2 45% 26 76.66 1014.6
14 00:51 S 11 16.09 Fair CLR 25.6 10 37% 26 76.71 1015.1
13 23:51 S 13 16.09 Fair CLR 26.7 7.8 35.6 26.1 30% 26 76.71 1015.1
13 22:51 SE 7 16.09 Fair CLR 27.2 6.7 27% 26 76.68 1014.8
13 21:51 S 13 16.09 Fair CLR 29.4 6.7 24% 28 76.66 1014.4
13 20:51 S 13 16.09 Fair CLR 31.1 6.1 21% 29 76.58 1013.6
13 19:51 S 17 16.09 Fair CLR 33.3 6.1 18% 31 76.56 1013.1
13 18:51 S 20 G 31 16.09 Fair CLR 35 6.7 17% 33 76.5 1012.9
13 17:51 S 15 G 28 16.09 Fair CLR 35.6 6.7 36.1 32.8 17% 33 76.5 1012.9
13 16:51 SE 15 G 31 16.09 Fair CLR 35.6 7.8 18% 33 76.53 1013.1
13 15:51 S 24 G 35 16.09 Fair CLR 35.6 8.9 19% 34 76.58 1013.6
13 14:51 S 15 G 35 16.09 Fair CLR 35 8.9 20% 33 76.61 1014.0
13 13:51 S 22 G 31 16.09 Fair CLR 34.4 10 22% 33 76.68 1014.7
13 12:51 S 15 G 39 16.09 Fair CLR 33.9 8.9 21% 32 76.73 1015.4
13 11:51 S 13 16.09 Fair CLR 32.8 8.9 32.8 20 23% 31 76.76 1015.9
13 10:51 S 19 G 31 16.09 Fair CLR 31.7 9.4 25% 30 76.78 1016.1
13 09:51 S 15 16.09 Fair CLR 30 10 29% 29 76.78 1016.3
13 08:51 S 11 16.09 Fair CLR 27.8 10.6 34% 27 76.81 1016.6
13 07:51 S 13 16.09 Fair CLR 25 10 39% 26 76.78 1016.3
13 06:51 S 9 16.09 Fair CLR 21.7 7.8 41% 76.76 1016.1
13 05:51 S 6 16.09 Fair CLR 20.6 7.2 26.1 20 42% 76.71 1015.6
13 04:51 Calm 16.09 Fair CLR 21.7 7.2 39% 76.66 1014.8
13 03:51 SW 6 16.09 Fair CLR 22.8 7.2 37% 76.61 1014.1
13 02:51 S 15 16.09 Fair CLR 24.4 7.2 33% 25 76.61 1013.6
13 01:51 S 15 16.09 Fair CLR 25.6 7.2 31% 26 76.61 1013.7
13 00:51 S 15 16.09 Fair CLR 26.1 7.2 30% 26 76.61 1013.6
12 23:51 SW 13 16.09 Fair CLR 26.1 6.7 36.1 26.1 29% 26 76.61 1013.7
12 22:51 SE 20 16.09 Fair CLR 28.3 6.7 25% 27 76.61 1013.4
12 21:51 S 13 16.09 Fair CLR 29.4 6.7 24% 28 76.56 1013.3
12 20:51 S 13 16.09 Fair CLR 31.1 7.2 22% 29 76.5 1012.5
12 19:51 S 20 16.09 Fair CLR 33.3 6.7 19% 31 76.48 1012.2
12 18:51 S 19 G 35 16.09 Fair CLR 34.4 6.1 17% 32 76.43 1012.0
12 17:51 SW 11 G 30 16.09 Fair CLR 35 5.6 36.7 33.9 16% 33 76.43 1011.7
Date Time (mdt) Wind (kph) Vis. (km) Weather Sky Cond. Air Dwpt Max. Min. Relative Humidity Wind Chill (°C) Heat Index (°C) altimeter (cm) sea level (mb) 1 hr 3 hr 6 hr
6 hour
Temperature (ºC) Pressure Precipitation (cm)